Miscellaneous Local Product
Issued by NWS Hastings, NE

Home | Current Version | Previous Version | Graphics & Text | Print | Product List | Glossary On
Versions: 1 2 3 4 5 6 7 8 9 10 11 12 13 14 15 16 17 18 19 20 21 22 23 24 25 26 27 28 29 30 31 32 33 34 35 36 37 38 39 40 41 42 43 44 45 46 47 48 49 50
000
AXUS43 KGID 261602
MISGRI

GID CWA HOURLY WEATHER ROUNDUP
NATIONAL WEATHER SERVICE HASTINGS NE
1000 AM CST MON JAN 26 2015

NOTE: "FAIR" INDICATES FEW OR NO CLOUDS BELOW 12,000 FEET WITH NO
SIGNIFICANT WEATHER AND/OR OBSTRUCTIONS TO VISIBILITY.

...SOUTH CENTRAL NEBRASKA...

CITY           SKY/WX    TMP DP  RH WIND       PRES   REMARKS
GRAND ISLAND   SUNNY     48  34  58 W13       29.97R
HASTINGS       SUNNY     48  33  56 NW13      29.97R
KEARNEY        SUNNY     48  34  57 NW14      30.00R
ORD            SUNNY     49  33  54 NW12      29.97R
YORK           SUNNY     46  36  66 NW17      29.94R
AURORA         SUNNY     48  34  57 NW17G24   29.95S
LEXINGTON      SUNNY     46  34  63 NW22      30.04S
HOLDREGE       SUNNY     50  32  49 W13G22    30.01S
HEBRON         SUNNY     48  33  56 NW9       29.96S

...NEBRASKA PANHANDLE...

CITY           SKY/WX    TMP DP  RH WIND       PRES   REMARKS
CHADRON        SUNNY     51  32  48 W18       30.12R
ALLIANCE       SUNNY     44  31  60 W16       30.14R
SCOTTSBLUFF    SUNNY     43  32  65 NW7       30.18R
SIDNEY         SUNNY     49  30  48 W12       30.19R

...WESTERN AND NORTH CENTRAL NEBRASKA...

CITY           SKY/WX    TMP DP  RH WIND       PRES   REMARKS
VALENTINE      SUNNY     45  33  63 W10       30.02R
AINSWORTH      SUNNY     45  33  62 W10       29.99R
ONEILL         SUNNY     46  36  69 NW10      29.95R
BROKEN BOW     SUNNY     52  34  50 NW17      29.99R
IMPERIAL       SUNNY     47  30  51 NW15      30.14R
NORTH PLATTE   SUNNY     43  33  68 W13       30.08S
MCCOOK         SUNNY     50  33  52 NW12      30.10R

...EASTERN NEBRASKA...

CITY           SKY/WX    TMP DP  RH WIND       PRES   REMARKS
NORFOLK        SUNNY     49  36  61 NW10      29.91R
SO SIOUX CITY  SUNNY     43  36  76 NW16      29.87R
TEKAMAH        SUNNY     45  36  70 NW17G23   29.86F
COLUMBUS       SUNNY     46  34  61 NW15      29.94R
ALBION         SUNNY     47  35  63 NW17      29.93R
OMAHA EPPLEY   MOSUNNY   43  34  70 NW12      29.88S
OFFUTT AFB     SUNNY     40  33  76 W10       29.88F WCI  34
MILLARD        SUNNY     40  32  73 W7        29.89S
LINCOLN        SUNNY     47  34  60 NW14      29.92F
NEBRASKA CITY  SUNNY     41  31  67 W17G28    29.89S
BEATRICE       SUNNY     38  32  77 W8        29.95R WCI  32
FALLS CITY     SUNNY     41  32  70 W12       29.92R

...NORTHERN KANSAS...

CITY           SKY/WX    TMP DP  RH WIND       PRES   REMARKS
GOODLAND       SUNNY     50  31  48 NW15      30.16R
HILL CITY      SUNNY     53  32  44 NW17G26   30.08R
NORTON         SUNNY     52  28  40 W17G24    30.07
PHILLIPSBURG   SUNNY     55  34  44 NW16G23   30.05S
SMITH CENTER   SUNNY     50  34  53 NW10      30.03F
BELOIT         SUNNY     43  34  70 W9        30.01S
HAYS           SUNNY     52  30  43 NW12      30.07R
RUSSELL        SUNNY     52  34  50 NW17      30.04R
CONCORDIA      SUNNY     45  33  63 W14       29.98R
SALINA         SUNNY     48  35  60 NW8       30.03R
TOPEKA         SUNNY     41  31  67 SW10      29.96F



USA.gov is the U.S. government's official web portal to all federal, state and local government web resources and services.